Location: Goettingen
(51.5300°N, 9.9433°E)
Time: 00:07:19
(UTC+02:00)

N. Korean satellite - Pass Details

Date: 03 October 2021
Orbit: 450 x 494 km, 97.3° (Epoch: 28 October)

Event Time Altitude Azimuth Distance (km) Brightness Sun altitude
Rises 06:25:18 0° 17° (NNE) 2,555 10.6 -10.0°
Reaches altitude 10° 06:27:25 10° 24° (NNE) 1,677 9.7 -9.7°
Maximum altitude 06:30:55 48° 99° (E) 650 7.7 -9.1°
Drops below altitude 10° 06:34:26 10° 175° (S) 1,683 9.3 -8.6°
Sets 06:36:34 0° 181° (S) 2,565 10.2 -8.3°
